Flag for Germany Weather past 2 weeks in Helmstedt, Lower Saxony, Germany

Now
39 °F

Passing clouds.


Feels Like: 37 °F
Forecast: 34 / 57 °F
Wind: 3 mph from West

Location: Braunschweig

Current Time: Apr 28, 2015 at 10:22:04 PM

Latest Report: Apr 28, 2015 at 9:50 PM


Visibility: N/A

Pressure: 30.09 "Hg

Humidity: 100%

Dew point: 39 °F

Location of HelmstedtLocation

Historic Weather in Helmstedt — Graph

°F

Helmstedt temperature yesterday

Maximum temperature yesterday: 50 °F (at 5:20 AM)
Minimum temperature yesterday: 45 °F (at 9:20 PM)
Average temperature yesterday: 47 °F

Past Weeks' High & Low Weather Summary

 TemperatureHumidityPressure
High73 °F (Apr 15, 4:20 PM)100% (Apr 14, 6:20 AM)30.39 "Hg (Apr 14, 6:20 AM)
Low34 °F (Apr 14, 6:20 AM)22% (Apr 21, 6:50 PM)29.59 "Hg (Apr 27, 6:50 AM)
Average53 °F65%30.05 "Hg
* Reported Apr 14 6:20 AM — Apr 28 9:20 PM, Helmstedt, Weather by CustomWeather, © 2015

Note: Actual official high and low records may vary slightly from our data, if they occured in-between our weather recording intervals... More about our weather records

Advertising

Helmstedt weather history for previous 24 hours

 ConditionsComfort  
Time TempWeatherWind HumidityBarometerVisibility
9:20 PM
Tue, Apr 28
39 °FPassing clouds.No wind100%30.09 "HgN/A
8:20 PM43 °FScattered clouds.9 mph93%30.07 "HgN/A
7:50 PM45 °FPartly sunny.13 mph81%30.04 "HgN/A
7:20 PM45 °FBroken clouds.15 mph81%30.04 "HgN/A
6:50 PM46 °FMostly cloudy.12 mph76%30.01 "HgN/A
6:20 PM48 °FPassing clouds.21 mph71%30.01 "HgN/A
5:50 PM54 °FPassing clouds.10 mph41%29.98 "HgN/A
5:20 PM54 °FPassing clouds.10 mph38%29.98 "HgN/A
4:20 PM55 °FSunny.10 mph36%29.95 "HgN/A
3:50 PM54 °FPassing clouds.12 mph38%29.98 "HgN/A
3:20 PM54 °FPassing clouds.12 mph41%29.95 "HgN/A
2:50 PM52 °FPassing clouds.10 mph44%29.98 "HgN/A
2:20 PM52 °FPassing clouds.12 mph44%29.95 "HgN/A
1:50 PM50 °FPassing clouds.12 mph54%29.95 "HgN/A
1:20 PM50 °FPassing clouds.12 mph43%29.95 "HgN/A
12:50 PM48 °FPassing clouds.10 mph46%29.95 "HgN/A
12:20 PM48 °FPassing clouds.9 mph58%29.92 "HgN/A
11:50 AM48 °FScattered clouds.9 mph58%29.92 "HgN/A
11:20 AM48 °FScattered clouds.7 mph66%29.92 "HgN/A
10:50 AM46 °FScattered clouds.7 mph71%29.92 "HgN/A
10:20 AM45 °FScattered clouds.5 mph81%29.92 "HgN/A
9:50 AM45 °FScattered clouds.7 mph76%29.89 "HgN/A
9:20 AM43 °FPassing clouds.6 mph81%29.89 "HgN/A
8:50 AM39 °FPassing clouds.6 mph93%29.89 "HgN/A
8:20 AM37 °FPassing clouds.7 mph100%29.89 "HgN/A
7:50 AM37 °FPassing clouds.7 mph100%29.86 "HgN/A
7:20 AM37 °FScattered clouds.6 mph100%29.86 "HgN/A
6:50 AM37 °FPassing clouds.5 mph100%29.86 "HgN/A
10:20 PM
Mon, Apr 27
45 °FPassing clouds.No wind100%29.77 "HgN/A
Weather by CustomWeather, © 2015

See weather overviewHow to use our weather pages